2018-099E (43762 NORAD) Tracking and Keplerian Element Data

This shows tracking and keplerian element data for the satellite.

Feedback or suggestion? Click here.




ElementValue
Catalog43762
Name2018-099E
Epoch Orbit101
Epoch Day344.50986061
Epoch Year2018
RAAN53.6039
Inclination97.7688
Eccentricity0.0011808
Argument of Perigee238.8348
Mean Anonmoly121.1715
Mean Motion14.9535832
Decay Rate-2.32E-06
L11 43762U 18099E 18344.50986061 -.00000232 00000-0 -15735-4 0 9998
L22 43762 97.7688 53.6039 0011808 238.8348 121.1715 14.95358320 1019

Live tracking and technical data element details for 2018-099E (NORAD 43762). 2018-099E can be tracked NOW for your location showing map with azimuth and elevation plus other details from your city location.

Track the satellite on the map from your city or location and see movement details for azimuth, elevation, latitude, longitude, range, height, and movement on the map or in text.







IsCatalogInMostPopularTable: catalog: 43762, numindb: 2
Update: records affected: 1



GetName: 43762 2018-099E

Hit Count: updated at: Tue, 11 Dec 2018 03:31:35 GMT